Regional Weather Roundup
Issued by NWS Grand Forks, ND

Home | Current Version | Previous Version | Graphics & Text | Print | Product List | Glossary On
Versions: 1 2 3 4 5 6 7 8 9 10 11 12 13 14 15 16 17 18 19 20 21 22 23 24 25 26 27 28 29 30 31 32 33 34 35 36 37 38 39 40 41 42 43 44 45 46 47 48 49 50
659
ASUS43 KFGF 141510
RWRFGF
PRAIRIE TO PINES  WEATHER ROUNDUP
NATIONAL WEATHER SERVICE EASTERN NORTH DAKOTA/GRAND FORKS ND
900 AM CST SUN FEB 14 2016

 **SATELLITE DATA USED TO AUGMENT SKY COVER AT AUTOMATED STATIONS**
 *****  WEATHER ACROSS EASTERN NORTH DAKOTA  *****

CITY           SKY/WX    TMP DP  RH WIND       PRES   REMARKS
GRAND FORKS    LGT SNOW  15  10  80 S21       29.82F VSB 3/4 WCI  -2
GRAND FRKS AFB LGT SNOW  14   9  79 S18       29.79F WCI  -3
DEVILS LAKE    NOT AVBL
FARGO          MIX PCPN  15   9  76 S22G29    29.86F WCI  -3
WAHPETON ARPT  CLOUDY    14  10  85 SE16G24   29.89F WCI  -2
$$

 ***** WEATHER ACROSS CENTRAL AND WESTERN NORTH DAKOTA  *****

CITY           SKY/WX    TMP DP  RH WIND       PRES   REMARKS
BISMARCK       CLOUDY    32  27  81 W5        29.74F
MINOT          CLOUDY    29  22  75 W9        29.69S HAZE    WCI  20
JAMESTOWN      CLOUDY    14  12  92 S14       29.73F FOG     WCI  -1
MINOT AFB      CLOUDY    27  27  99 CALM      29.69S
GARRISON         N/A     29  26  89 NW7       29.70S WCI  22
WILLISTON      PTCLDY    19  17  92 SW3       29.73S
DICKINSON      CLOUDY    27  24  89 W12       29.70S WCI  17
HETTINGER      CLOUDY    28  24  85 NW9       29.75R WCI  19
$$

 *****  OTHER AIRPORT OBSERVATIONS IN OUR AREA  *****

CITY           SKY/WX    TMP DP  RH WIND       PRES   REMARKS
WALHALLA         N/A     14  14 100 S13       29.76F WCI   0
GRAFTON AIRPOR NOT AVBL
VALLEY CITY AR NOT AVBL
CANDO          NOT AVBL
CAVALIER APRT  NOT AVBL
GWINNER        CLOUDY    18  14  86 S12       29.83F WCI   5
SHEYENNE NWR     N/A     14  10  82 S13       29.95S WCI   0
ROLLA          CLOUDY    14  12  92 SW6       29.67F WCI   5
 ***** THE ABOVE OBSERVATIONS ARE NON NWS ARE NOT QUALITY
       CONTROLLED AND MAY MIS-REPORT RAIN FOR SNOW...
$$

  *****  WEATHER ACROSS NORTHERN MINNESOTA  *****

CITY           SKY/WX    TMP DP  RH WIND       PRES   REMARKS
FLAG ISLAND    LGT SNOW   7   1  78 S20       29.87F WCI -13
WARROAD        LGT SNOW  10   5  79 S10G20    29.87F WCI  -3
ROSEAU         LGT SNOW  12   7  79 S14       29.85F WCI  -3
HALLOCK        LGT SNOW  14  10  85 S23       29.81F VSB 3/4 WCI  -5
THF RVR FALLS  CLOUDY    12   9  85 S20       29.85F WCI  -6
BAUDETTE       CLOUDY     9  -4  55 S13       29.89F WCI  -7
WASKISH        CLOUDY    10   1  67 SE10G17   29.90F WCI  -3
CROOKSTON      CLOUDY    12  10  92 S22       29.87F FOG     WCI  -7
STEPHEN NDAWN    N/A     12  10  92 S20         N/A  WCI  -6
GREENBUSH NDAW   N/A     12   9  85 S16         N/A  WCI  -4
$$
  *****  WEATHER ACROSS CENTRAL AND WEST MINNESOTA  *****

CITY           SKY/WX    TMP DP  RH WIND       PRES   REMARKS
FOSSTON        LGT SNOW  10   5  79 S14       29.87F VSB 1   WCI  -5
BEMIDJI        LGT SNOW   7   2  82 SE13      29.89F WCI  -9
PARK RAPIDS    LGT SNOW  10   4  76 SE15      29.90F VSB 1   WCI  -7
ELBOW LAKE     LGT SNOW  12   9  86 E18G25    29.90F WCI  -6
WADENA         FLURRIES   9   3  78 SE10      29.91F WCI  -6
DETROIT LAKES  LGT SNOW  12   9  85 S14       29.88F VSB 1   WCI  -3
MOORHEAD       MIX PCPN  12  10  92 S22G28    29.87F WCI  -7
FERGUS FALLS   LGT SNOW  12   9  85 S20       29.93F WCI  -6
MORRIS MN      LGT SNOW  12  10  92 SE18      29.90F WCI  -5
STAPLES        CLOUDY     9   3  78 SE7       29.94F WCI  -3
$$
  *****  WEATHER ELSEWHERE ACROSS MINNESOTA  *****

CITY           SKY/WX    TMP DP  RH WIND       PRES   REMARKS
DULUTH         CLOUDY     5  -7  57 SE8       30.03F WCI  -8
INTRNTL FALLS  CLOUDY     5 -10  50 SE9       29.95F WCI  -9
ELY            CLOUDY     1  -6  71 SE7       30.02F WCI -11
CLOQUET        FLURRIES   3  -9  55 E7        30.03F WCI  -9
WHEATON        NOT AVBL
BRAINERD       LGT SNOW   8   3  80 SE9       29.98S VSB 1   WCI  -5
HIBBING        CLOUDY     2  -9  60 SE8       30.00F WCI -12
ALEXANDRIA     LGT SNOW  11   7  84 SE14      29.91F VSB 1   WCI  -5
SAINT CLOUD    CLOUDY    12   4  70 SE14      29.99F WCI  -3
MINNEAPOLIS    CLOUDY    12   4  70 SE10      30.06F WCI  -1
$$

  *****  WEATHER ACROSS SOUTH DAKOTA  *****

CITY           SKY/WX    TMP DP  RH WIND       PRES   REMARKS
SIOUX FALLS    CLOUDY    15  11  83 SE12      29.86S WCI   2
BROOKINGS      FLURRIES  14   9  80 S15       29.84S WCI  -1
WATERTOWN      CLOUDY    13   8  81 S15       29.80F WCI  -3
HURON          CLOUDY    16  12  84 S10       29.84S WCI   4
SISSETON         N/A     13  10  88 S15       29.86F WCI  -3
ABERDEEN       CLOUDY    17  12  80 S14       29.83R HAZE    WCI   3
MITCHELL       CLOUDY    17  13  84 SE7       29.86S WCI   8
PIERRE         CLOUDY    33  31  92 W7        29.79S
MOBRIDGE       CLOUDY    26  23  88 S3        29.75S
RAPID CITY     CLOUDY    34  26  72 NW6       29.81F
$$

  *****  SOME WEATHER IN NEARBY STATES *****

CITY           SKY/WX    TMP DP  RH WIND       PRES   REMARKS
GLASGOW MT     CLOUDY    32  26  78 N6        29.73S
GREAT FALLS MT PTCLDY    38  22  52 W13       29.80S
CHEYENNE WY    CLOUDY    41  15  35 W8G23     29.89S
SCOTTSBLUFF NE CLOUDY    29  24  82 CALM      29.89R
OMAHA NE       CLOUDY    24  11  57 S14       29.90F WCI  12
DES MOINES IA  SNOW      18  14  84 SE9       30.00F VSB 1/2 WCI   7
DAVENPORT IA   SNOW      16  12  84 SE20      30.17F VSB 1/4 WCI  -1
CHICAGO IL     CLOUDY    16   2  54 SE17      30.27F WCI   0
EAU CLAIRE WI  CLOUDY     7  -6  55 SE9       30.13F WCI  -7
LA CROSSE WI   LGT SNOW  13   3  64 SE13      30.15F WCI  -2
$$

  *****  SOME NATIONAL WEATHER *****

CITY           SKY/WX    TMP DP  RH WIND       PRES   REMARKS
LA GUARDIA NY  MOSUNNY    4 -12  48 NW16G24   30.54R WCI -15
RALEIGH NC     PTSUNNY   21  -3  35 NE9       30.56S WCI  11
ATLANTA GA     MOSUNNY   33   9  36 E13       30.37F WCI  24
NEW ORLEANS LA PTSUNNY   60  45  57 S8        30.24R
OKLAHOMA CITY  CLOUDY    51  46  83 N6        29.95R
ALBUQUERQUE NM PTSUNNY   42  18  37 CALM      30.14R
SALT LAKE CITY SNOW      29  28  96 S6        30.27S VSB 1/2 WCI  23
LOS ANGELES CA FOG       50  48  93 VRB3      30.05R VSB 1/4
BOISE ID       LGT RAIN  39  38  96 SE3       30.24R
SEATTLE WA     LGT RAIN  48  46  93 S8        30.13R
$$

*** WEATHER ACROSS MANITOBA...SASKATCHEWAN AND ONTARIO ***
                ***ONTARIO***

CITY           SKY/WX    TMP DP  RH WIND       PRES   REMARKS
GERALDTON      MOSUNNY  -15 -22  70 NW2       30.16F
THUNDER BAY    MOSUNNY   -6 -13  71 SW3       30.18F
SIOUX LOOKOUT  PTSUNNY   -4 -15  59 S8        29.95F WCI -19
TORONTO        MOSUNNY   -4 -18  50 VRB2      30.52F
BIG TROUT LK   SUNNY     -4 -11  71 S15       29.90F WCI -25
PICKLE LAKE    MOSUNNY   -2 -15  55 S10       29.96F WCI -19
DRYDEN         CLOUDY     0 -11  60 S13G21    29.92F WCI -18
KENORA         FLURRIES   5  -6  61 S12       29.86F WCI -11
$$
                *** MANITOBA***

CITY           SKY/WX    TMP DP  RH WIND       PRES   REMARKS
BRANDON        CLOUDY    14  10  85 SW7       29.68F WCI   4
DAUPHIN        CLOUDY    16  10  79 SW6       29.67S WCI   7
ISLAND LAKE    NOT AVBL
PILOT MOUND      N/A     14  10  85 S10         N/A  WCI   1
THE PAS        CLOUDY    12   9  85 S8        29.57F WCI   1
THOMPSON       FRZ DRZL   5   1  85 S8        29.55F WCI  -8
WINNIPEG       LGT SNOW  12   9  85 S20       29.79F DRFTSNOWWCI  -6
LYNN LAKE      LGT SNOW  10   9  92 SW6       29.40F WCI   1
CHURCHILL      LGT SNOW   5   0  78 S12       29.56F VSB 1   WCI -11
GILLAM         LGT SNOW   3  -2  78 S13G20    29.60  DRFTSNOWWCI -14
$$
                ***SASKATCHEWAN***

CITY           SKY/WX    TMP DP  RH WIND       PRES   REMARKS
ESTEVAN        CLOUDY    28  25  86 W8        29.69S WCI  20
KINDERSLEY     MOCLDY    16  14  93 CALM      29.63R FOG
LLOYDMINSTER   MOCLDY    23  21  93 W8        29.60S WCI  14
PRINCE ALBERT  PTCLDY    10   7  85 SW6       29.59S WCI   1
REGINA         FOG       19  19 100 S5        29.66F VSB 3/8 WCI  13
YORKTON        CLOUDY    23  21  93 W10       29.63F WCI  12
N. BATTLEFORD  PTCLDY    16  16 100 N3        29.64R
LA RONGE       CLOUDY    23  19  86 W8        29.52R WCI  14
SASKATOON      MOCLDY    18  16  93 SW6       29.64S WCI   9
SWIFT CURRENT  PTCLDY    25  21  86 SW12      29.62S WCI  14
$$
NOTE: THESE ARE AUTOMATED STATIONS WITH LIMITED QUALITY CONTROL
      "FAIR" INDICATES FEW OR NO CLOUDS BELOW 12,000 FEET WITH NO
      SIGNIFICANT WEATHER AND/OR OBSTRUCTIONS TO VISIBILITY.
      SKY/WX - SKY CONDITION AND SIGNIFICANT WEATHER.
      TMP - AIR TEMPERATURE.    DP   - DEWPOINT TEMPERATURE.
      RH  - RELATIVE HUMIDITY.  PRES - PRESSURE.
      HX  - HEAT INDEX.         WCI  - WIND CHILL INDEX.
$




USA.gov is the U.S. government's official web portal to all federal, state and local government web resources and services.